Weather History for KLRJ - March, 2014

Change the Weather History Date:

Saturday, March 15, 2014

  Actual Average Record
Temperature  
Mean Temperature 34 °F -  
Max Temperature 41 °F 45 °F 77 °F (2015)
Min Temperature 28 °F 24 °F 0 °F (1979)
Degree Days  
Heating Degree Days 30    
Moisture  
Dew Point 24 °F    
Average Humidity 69    
Maximum Humidity 93    
Minimum Humidity 42    
Precipitation  
Precipitation 0.00 in - - ()
Sea Level Pressure  
Sea Level Pressure 30.06 in    
Wind  
Wind Speed 13 mph (ENE)    
Max Wind Speed 26 mph    
Max Gust Speed 33 mph    
Visibility 10 miles    
Events      
Averages and records for this station are not official NWS values.
T = Trace of Precipitation, MM = Missing Value Source: NWS Daily Summary

Daily Weather History Graph

Daily Weather History Graph

Search for Another Location

Airport or City:

Trip Planner

Search our weather history database for the weather conditions in past years. The results will help you decide how hot, cold, wet, or windy it might be!

Date:

Astronomy

Mar. 15, 2014 Rise Set
Actual Time 7:36 AM CDT 7:31 PM CDT
Civil Twilight 7:08 AM CDT 7:59 PM CDT
Nautical Twilight 6:35 AM CDT 8:32 PM CDT
Astronomical Twilight 6:02 AM CDT 9:05 PM CDT
Moon 6:51 PM CDT (3/15) 6:50 AM CDT (3/15)
Length of Visible Light 12h 50m
Length of Day
11h 54m
Waxing Gibbous, 99% of the Moon is Illuminated
Mar 15
Waxing Gibbous
Mar 16
Full
Mar 23
Last Quarter
Mar 30
New
Apr 7
First Quarter

Hourly Weather History & Observations

Time (CDT) Temp. Windchill Dew Point Humidity Pressure Visibility Wind Dir Wind Speed Gust Speed Precip Events Conditions
12:15 AM 28.4 °F 24.6 °F 26.6 °F 93% 29.95 in 10.0 mi NE 3.5 mph - N/A   Partly Cloudy
12:35 AM 37.4 °F 31.4 °F 32.0 °F 81% 29.95 in 10.0 mi East 8.1 mph - N/A   Mostly Cloudy
12:55 AM 35.6 °F 27.5 °F 32.0 °F 87% 29.94 in 10.0 mi East 11.5 mph - N/A   Overcast
1:15 AM 35.6 °F 29.2 °F 32.0 °F 87% 29.94 in 10.0 mi East 8.1 mph 16.1 mph N/A   Overcast
1:35 AM 35.6 °F 28.0 °F 32.0 °F 87% 29.94 in 10.0 mi East 10.4 mph - N/A   Overcast
1:55 AM 35.6 °F 28.6 °F 32.0 °F 87% 29.95 in 10.0 mi East 9.2 mph - N/A   Overcast
2:15 AM 35.6 °F 28.6 °F 32.0 °F 87% 29.95 in 10.0 mi East 9.2 mph 15.0 mph N/A   Mostly Cloudy
2:35 AM 35.6 °F 28.0 °F 32.0 °F 87% 29.95 in 10.0 mi East 10.4 mph - N/A   Mostly Cloudy
2:55 AM 35.6 °F 29.2 °F 30.2 °F 81% 29.96 in 10.0 mi East 8.1 mph 15.0 mph N/A   Overcast
3:15 AM 35.6 °F 28.6 °F 30.2 °F 81% 29.95 in 10.0 mi East 9.2 mph - N/A   Overcast
3:35 AM 33.8 °F 25.3 °F 30.2 °F 87% 29.94 in 10.0 mi East 11.5 mph 17.3 mph N/A   Overcast
3:55 AM 33.8 °F 25.3 °F 30.2 °F 87% 29.93 in 10.0 mi East 11.5 mph 19.6 mph N/A   Overcast
4:15 AM 33.8 °F 24.8 °F 30.2 °F 87% 29.92 in 10.0 mi East 12.7 mph 20.7 mph N/A   Mostly Cloudy
4:35 AM 33.8 °F 24.8 °F 30.2 °F 87% 29.90 in 10.0 mi East 12.7 mph 18.4 mph N/A   Mostly Cloudy
4:55 AM 33.8 °F 23.9 °F 28.4 °F 81% 29.89 in 10.0 mi East 15.0 mph - N/A   Mostly Cloudy
5:15 AM 33.8 °F 24.8 °F 24.8 °F 70% 29.89 in 10.0 mi East 12.7 mph 19.6 mph N/A   Partly Cloudy
5:35 AM 33.8 °F 23.5 °F 24.8 °F 70% 29.89 in 10.0 mi East 16.1 mph - N/A   Partly Cloudy
5:55 AM 32.0 °F 23.0 °F 24.8 °F 75% 29.89 in 10.0 mi East 11.5 mph 20.7 mph N/A   Clear
6:15 AM 32.0 °F 23.0 °F 24.8 °F 75% 29.90 in 10.0 mi East 11.5 mph 19.6 mph N/A   Clear
6:35 AM 32.0 °F 22.1 °F 24.8 °F 75% 29.90 in 10.0 mi East 13.8 mph - N/A   Clear
6:55 AM 32.0 °F 23.6 °F 23.0 °F 69% 29.91 in 10.0 mi ENE 10.4 mph 18.4 mph N/A   Clear
7:15 AM 32.0 °F 22.1 °F 21.2 °F 64% 29.91 in 10.0 mi ENE 13.8 mph 20.7 mph N/A   Clear
7:35 AM 32.0 °F 23.0 °F 21.2 °F 64% 29.92 in 10.0 mi ENE 11.5 mph 21.9 mph N/A   Clear
7:55 AM 32.0 °F 22.1 °F 21.2 °F 64% 29.93 in 10.0 mi ENE 13.8 mph 21.9 mph N/A   Clear
8:15 AM 32.0 °F 21.6 °F 21.2 °F 64% 29.94 in 10.0 mi ENE 15.0 mph 23.0 mph N/A   Clear
8:35 AM 32.0 °F 22.1 °F 21.2 °F 64% 29.94 in 10.0 mi East 13.8 mph 27.6 mph N/A   Clear
8:55 AM 33.8 °F 24.3 °F 19.4 °F 56% 29.94 in 10.0 mi East 13.8 mph 26.5 mph N/A   Clear
9:15 AM 33.8 °F 24.8 °F 19.4 °F 56% 29.94 in 10.0 mi East 12.7 mph 25.3 mph N/A   Clear
9:35 AM 33.8 °F 22.2 °F 19.4 °F 56% 29.95 in 10.0 mi East 20.7 mph 26.5 mph N/A   Clear
9:55 AM 35.6 °F 25.5 °F 19.4 °F 52% 29.96 in 10.0 mi East 17.3 mph 26.5 mph N/A   Clear
10:15 AM 35.6 °F 26.2 °F 17.6 °F 48% 29.97 in 10.0 mi East 15.0 mph 28.8 mph N/A   Clear
10:35 AM 37.4 °F 28.5 °F 17.6 °F 45% 29.97 in 10.0 mi East 15.0 mph 29.9 mph N/A   Clear
10:55 AM 37.4 °F 26.4 °F 19.4 °F 48% 29.97 in 10.0 mi East 23.0 mph 31.1 mph N/A   Clear
11:15 AM 39.2 °F 29.6 °F 19.4 °F 45% 29.98 in 10.0 mi ENE 19.6 mph 28.8 mph N/A   Clear
11:35 AM 39.2 °F 29.8 °F 19.4 °F 45% 29.99 in 10.0 mi East 18.4 mph 32.2 mph N/A   Clear
11:55 AM 39.2 °F 28.7 °F 19.4 °F 45% 30.00 in 10.0 mi ENE 23.0 mph - N/A   Clear
12:15 PM 41.0 °F 31.9 °F 19.4 °F 42% 30.00 in 10.0 mi ENE 19.6 mph 27.6 mph N/A   Clear
12:35 PM 41.0 °F 32.2 °F 19.4 °F 42% 30.01 in 10.0 mi ENE 18.4 mph 27.6 mph N/A   Clear
1:15 PM 41.0 °F 31.9 °F 21.2 °F 45% 30.02 in 10.0 mi ENE 19.6 mph 29.9 mph N/A   Clear
1:35 PM 41.0 °F 31.9 °F 23.0 °F 49% 30.02 in 10.0 mi ENE 19.6 mph 27.6 mph N/A   Clear
1:55 PM 41.0 °F 31.6 °F 23.0 °F 49% 30.03 in 10.0 mi ENE 20.7 mph 28.8 mph N/A   Clear
2:15 PM 41.0 °F 31.9 °F 23.0 °F 49% 30.05 in 10.0 mi NE 19.6 mph 27.6 mph N/A   Clear
2:35 PM 39.2 °F 29.8 °F 24.8 °F 56% 30.06 in 10.0 mi NE 18.4 mph 28.8 mph N/A   Partly Cloudy
2:55 PM 39.2 °F 29.0 °F 24.8 °F 56% 30.07 in 10.0 mi NE 21.9 mph - N/A   Clear
3:15 PM 39.2 °F 30.8 °F 26.6 °F 61% 30.07 in 10.0 mi NE 15.0 mph 29.9 mph N/A   Clear
3:35 PM 37.4 °F 26.6 °F 28.4 °F 70% 30.08 in 10.0 mi NE 21.9 mph 32.2 mph N/A   Partly Cloudy
3:55 PM 35.6 °F 23.2 °F 26.6 °F 70% 30.09 in 10.0 mi NE 26.5 mph 32.2 mph N/A   Mostly Cloudy
4:15 PM 35.6 °F 24.5 °F 26.6 °F 70% 30.10 in 10.0 mi NE 20.7 mph 29.9 mph N/A   Mostly Cloudy
4:35 PM 35.6 °F 25.5 °F 24.8 °F 65% 30.11 in 10.0 mi NE 17.3 mph 28.8 mph N/A   Partly Cloudy
4:55 PM 33.8 °F 22.5 °F 24.8 °F 70% 30.13 in 10.0 mi NE 19.6 mph 29.9 mph N/A   Clear
5:15 PM 32.0 °F 19.2 °F 24.8 °F 75% 30.13 in 10.0 mi NE 23.0 mph 29.9 mph N/A   Partly Cloudy
5:35 PM 32.0 °F 19.5 °F 26.6 °F 80% 30.15 in 7.0 mi NE 21.9 mph 28.8 mph N/A   Mostly Cloudy
5:55 PM 30.2 °F 17.4 °F 26.6 °F 86% 30.16 in 3.0 mi NE 20.7 mph 29.9 mph N/A   Mostly Cloudy
6:15 PM 30.2 °F 17.1 °F 26.6 °F 86% 30.17 in 5.0 mi NE 21.9 mph 27.6 mph N/A   Mostly Cloudy
6:35 PM 30.2 °F 16.5 °F 24.8 °F 80% 30.19 in 6.0 mi NE 24.2 mph 33.4 mph N/A   Haze
6:55 PM 30.2 °F 18.5 °F 26.6 °F 86% 30.20 in 10.0 mi NNE 17.3 mph 27.6 mph N/A   Mostly Cloudy
7:15 PM 30.2 °F 17.1 °F 23.0 °F 75% 30.21 in 10.0 mi NE 21.9 mph 31.1 mph N/A   Mostly Cloudy
7:35 PM 30.2 °F 18.1 °F 24.8 °F 80% 30.23 in 10.0 mi NNE 18.4 mph 25.3 mph N/A   Mostly Cloudy
7:55 PM 30.2 °F 18.1 °F 23.0 °F 75% 30.24 in 10.0 mi NNE 18.4 mph 26.5 mph N/A   Overcast
8:15 PM 30.2 °F 18.1 °F 23.0 °F 75% 30.25 in 10.0 mi NNE 18.4 mph - N/A   Overcast
8:35 PM 30.2 °F 19.3 °F 23.0 °F 75% 30.25 in 10.0 mi NNE 15.0 mph 24.2 mph N/A   Overcast
8:55 PM 30.2 °F 18.9 °F 23.0 °F 75% 30.26 in 10.0 mi NNE 16.1 mph - N/A   Mostly Cloudy
9:15 PM 30.2 °F 20.2 °F 23.0 °F 75% 30.28 in 10.0 mi NNE 12.7 mph - N/A   Partly Cloudy
9:35 PM 28.4 °F 18.0 °F 21.2 °F 74% 30.29 in 10.0 mi NNE 12.7 mph 19.6 mph N/A   Scattered Clouds
9:55 PM 30.2 °F 19.3 °F 21.2 °F 69% 30.30 in 10.0 mi NE 15.0 mph 21.9 mph N/A   Overcast
10:15 PM 30.2 °F 20.2 °F 21.2 °F 69% 30.32 in 10.0 mi NNE 12.7 mph 20.7 mph N/A   Overcast
10:35 PM 30.2 °F 18.5 °F 21.2 °F 69% 30.33 in 10.0 mi NNE 17.3 mph 24.2 mph N/A   Overcast
10:55 PM 28.4 °F 19.7 °F 21.2 °F 74% 30.33 in 10.0 mi NNE 9.2 mph 18.4 mph N/A   Overcast
11:15 PM 28.4 °F 19.1 °F 21.2 °F 74% 30.34 in 10.0 mi NNE 10.4 mph - N/A   Mostly Cloudy
11:35 PM 28.4 °F 16.2 °F 21.2 °F 74% 30.34 in 10.0 mi NNE 17.3 mph - N/A   Overcast
11:55 PM 28.4 °F 17.0 °F 21.2 °F 74% 30.35 in 10.0 mi NNE 15.0 mph 20.7 mph N/A   Overcast